FW3182 Weather Reports


Display with metric or nautical units.
time (UTC)temp
F
wind
direction
speed
MPH
gust
MPH
rain 1hr
in
rain 24hr
in
rain mn
in
humidity
%
barometer
mb
20240620230703 85 55 0.0 1.0 0.00 0.00 0.00 69 1022.8
20240620230202 86 48 1.0 3.0 0.00 0.00 0.00 65 1022.8
20240620225702 87 40 1.0 3.0 0.00 0.00 0.00 63 1022.8
20240620225203 89 23 1.0 2.0 0.00 0.00 0.00 59 1022.8
20240620224703 90 80 0.0 2.0 0.00 0.00 0.00 59 1022.8
20240620224202 90 82 0.0 1.0 0.00 0.00 0.00 59 1022.8
20240620223703 90 102 0.0 1.0 0.00 0.00 0.00 59 1022.8
20240620223202 89 94 0.0 2.0 0.00 0.00 0.00 59 1022.8
20240620222703 88 87 0.0 1.0 0.00 0.00 0.00 63 1023.0
20240620222203 89 38 0.0 1.0 0.00 0.00 0.00 61 1023.0
20240620221702 89 68 0.0 1.0 0.00 0.00 0.00 62 1023.0
20240620220703 89 98 0.0 3.0 0.00 0.00 0.00 60 1023.5
20240620220202 89 31 0.0 1.0 0.00 0.00 0.00 57 1023.5
20240620215702 90 51 1.0 2.0 0.00 0.00 0.00 55 1023.5
20240620215203 91 300 0.0 1.0 0.00 0.00 0.00 60 1023.5
20240620214203 90 43 0.0 1.0 0.00 0.00 0.00 55 1023.5
20240620213703 91 152 0.0 1.0 0.00 0.00 0.00 57 1023.5
20240620213202 90 79 0.0 2.0 0.00 0.00 0.00 56 1023.5
20240620212702 90 62 1.0 1.0 0.00 0.00 0.00 58 1023.5
20240620211703 89 71 1.0 3.0 0.00 0.00 0.00 58 1023.5
20240620210702 90 96 0.0 3.0 0.00 0.00 0.00 56 1023.5
20240620210203 90 17 0.0 1.0 0.00 0.00 0.00 60 1023.7
20240620205703 90 70 0.0 2.0 0.00 0.00 0.00 57 1023.7
20240620205202 91 140 2.0 3.0 0.00 0.00 0.00 56 1023.7
20240620204703 91 106 0.0 3.0 0.00 0.00 0.00 56 1023.7
20240620204203 90 199 1.0 3.0 0.00 0.00 0.00 55 1023.7
20240620203702 91 43 1.0 3.0 0.00 0.00 0.00 53 1023.8
20240620203202 91 69 1.0 2.0 0.00 0.00 0.00 55 1023.8
20240620202703 90 108 1.0 3.0 0.00 0.00 0.00 53 1023.8
20240620202202 90 31 1.0 5.0 0.00 0.00 0.00 52 1023.8
20240620201703 92 20 1.0 3.0 0.00 0.00 0.00 51 1023.9
20240620201202 91 87 0.0 2.0 0.00 0.00 0.00 53 1024.2
20240620200702 91 173 1.0 2.0 0.00 0.00 0.00 53 1024.2
20240620200203 90 169 2.0 3.0 0.00 0.00 0.00 54 1024.2
20240620195702 90 146 1.0 6.0 0.00 0.00 0.00 58 1024.2
20240620195203 91 159 1.0 3.0 0.00 0.00 0.00 54 1024.2
20240620194703 91 34 0.0 3.0 0.00 0.00 0.00 57 1024.2
20240620194202 90 166 1.0 5.0 0.00 0.00 0.00 56 1024.2
20240620193703 91 189 2.0 7.0 0.00 0.00 0.00 54 1024.2
20240620193202 90 97 0.0 3.0 0.00 0.00 0.00 56 1024.6
20240620192703 90 208 1.0 7.0 0.00 0.00 0.00 55 1024.6
20240620191703 90 141 1.0 5.0 0.00 0.00 0.00 57 1024.6
20240620191203 89 93 0.0 2.0 0.00 0.00 0.00 60 1024.6
20240620190702 89 147 0.0 3.0 0.00 0.00 0.00 60 1024.6
20240620190203 89 59 1.0 3.0 0.00 0.00 0.00 58 1024.6
20240620185703 89 119 2.0 3.0 0.00 0.00 0.00 60 1024.6
20240620185202 89 218 0.0 3.0 0.00 0.00 0.00 62 1024.6
20240620184702 87 155 1.0 3.0 0.00 0.00 0.00 62 1024.6
20240620184203 87 62 1.0 3.0 0.00 0.00 0.00 61 1024.6
20240620183702 88 51 2.0 3.0 0.00 0.00 0.00 61 1024.6
20240620183204 87 124 2.0 6.0 0.00 0.00 0.00 60 1024.6
20240620182702 88 66 0.0 2.0 0.00 0.00 0.00 61 1024.8
20240620182202 88 91 2.0 5.0 0.00 0.00 0.00 62 1024.8
20240620181703 87 147 1.0 5.0 0.00 0.00 0.00 63 1025.0
20240620181202 87 40 2.0 8.0 0.00 0.00 0.00 66 1025.0
20240620180702 87 205 4.0 7.0 0.00 0.00 0.00 62 1025.0
20240620175703 88 100 1.0 3.0 0.00 0.00 0.00 62 1025.0
20240620175202 88 134 1.0 3.0 0.00 0.00 0.00 61 1025.0
20240620174703 89 214 0.0 3.0 0.00 0.00 0.00 59 1025.0
20240620174203 89 108 1.0 3.0 0.00 0.00 0.00 60 1025.3
20240620173202 88 205 1.0 2.0 0.00 0.00 0.00 60 1025.3
20240620172703 88 172 1.0 2.0 0.00 0.00 0.00 63 1025.3
20240620172203 87 112 0.0 3.0 0.00 0.00 0.00 62 1025.3
20240620171702 87 143 1.0 6.0 0.00 0.00 0.00 63 1025.3
20240620170702 85 167 1.0 7.0 0.00 0.00 0.00 65 1025.3
20240620170203 86 204 2.0 5.0 0.00 0.00 0.00 65 1025.3
20240620165202 86 140 0.0 1.0 0.00 0.00 0.00 64 1025.3
20240620164702 86 215 0.0 1.0 0.00 0.00 0.00 66 1025.3
20240620164203 85 112 1.0 6.0 0.00 0.00 0.00 64 1025.3
20240620163702 86 206 2.0 5.0 0.00 0.00 0.00 64 1025.2
20240620163203 86 237 2.0 3.0 0.00 0.00 0.00 65 1025.2
20240620162702 85 66 1.0 3.0 0.00 0.00 0.00 66 1025.2
20240620162203 85 228 1.0 3.0 0.00 0.00 0.00 67 1025.2
20240620161703 85 157 1.0 5.0 0.00 0.00 0.00 70 1025.2
20240620161202 84 182 1.0 9.0 0.00 0.00 0.00 70 1025.2
20240620160703 85 201 1.0 8.0 0.00 0.00 0.00 68 1025.2
20240620160202 85 91 1.0 3.0 0.00 0.00 0.00 68 1025.2
20240620155703 85 63 1.0 3.0 0.00 0.00 0.00 69 1025.2
20240620155203 85 237 1.0 2.0 0.00 0.00 0.00 67 1025.2
20240620154702 85 127 1.0 3.0 0.00 0.00 0.00 67 1025.2
20240620154203 85 145 1.0 2.0 0.00 0.00 0.00 68 1025.2
20240620153203 84 78 0.0 1.0 0.00 0.00 0.00 73 1025.3
20240620152703 83 43 1.0 2.0 0.00 0.00 0.00 72 1025.4
20240620151702 82 81 2.0 6.0 0.00 0.00 0.00 73 1025.3
20240620150702 82 232 3.0 5.0 0.00 0.00 0.00 74 1025.3
20240620150203 82 189 2.0 5.0 0.00 0.00 0.00 72 1025.3
20240620145703 82 113 1.0 3.0 0.00 0.00 0.00 76 1025.3
20240620145202 81 65 0.0 1.0 0.00 0.00 0.00 76 1025.3
20240620144703 81 152 1.0 3.0 0.00 0.00 0.00 77 1025.3
20240620144203 80 167 0.0 2.0 0.00 0.00 0.00 81 1025.3
20240620142703 79 61 1.0 2.0 0.00 0.00 0.00 82 1025.3
20240620141703 79 71 0.0 2.0 0.00 0.00 0.00 83 1025.3
20240620141202 79 65 1.0 2.0 0.00 0.00 0.00 83 1025.3
20240620140702 78 18 0.0 2.0 0.00 0.00 0.00 85 1025.3
20240620140202 78 82 1.0 3.0 0.00 0.00 0.00 83 1025.3
20240620135703 78 39 0.0 2.0 0.00 0.00 0.00 85 1025.3
20240620135202 77 68 0.0 1.0 0.00 0.00 0.00 86 1025.3
20240620134203 76 65 0.0 1.0 0.00 0.00 0.00 88 1025.1
20240620133703 76 65 1.0 3.0 0.00 0.00 0.00 88 1025.1
20240620133202 75 69 2.0 3.0 0.00 0.00 0.00 88 1025.1
20240620132703 75 63 0.0 3.0 0.00 0.00 0.00 88 1025.0
20240620132202 76 62 0.0 2.0 0.00 0.00 0.00 88 1025.0
20240620131702 75 1 0.0 1.0 0.00 0.00 0.00 88 1025.0
20240620131203 75 110 0.0 1.0 0.00 0.00 0.00 88 1025.0
20240620130703 76 100 0.0 1.0 0.00 0.00 0.00 88 1025.0
20240620125703 76 93 0.0 1.0 0.00 0.00 0.00 89 1024.8
20240620125202 75 54 0.0 3.0 0.00 0.00 0.00 90 1024.8
20240620124703 75 82 0.0 2.0 0.00 0.00 0.00 91 1024.8
20240620123203 72 97 0.0 3.0 0.00 0.00 0.00 95 1024.8
20240620122702 72 67 0.0 1.0 0.00 0.00 0.00 100 1024.8
20240620122202 71 82 0.0 0.0 0.00 0.00 0.00 100 1024.8
20240620121703 71 82 0.0 0.0 0.00 0.00 0.00 100 1024.6
20240620121202 70 82 0.0 0.0 0.00 0.00 0.00 100 1024.6
20240620120703 69 82 0.0 0.0 0.00 0.00 0.00 100 1024.6
20240620120203 69 82 0.0 0.0 0.00 0.00 0.00 100 1024.6
20240620115703 69 82 0.0 0.0 0.00 0.00 0.00 100 1024.3
20240620115202 69 82 0.0 0.0 0.00 0.00 0.00 100 1024.3
20240620114703 69 82 0.0 0.0 0.00 0.00 0.00 100 1024.3
20240620114202 69 82 0.0 0.0 0.00 0.00 0.00 100 1024.4
20240620113703 68 82 0.0 0.0 0.00 0.00 0.00 100 1024.2
20240620113202 68 82 0.0 0.0 0.00 0.00 0.00 100 1024.2
20240620112703 68 82 0.0 0.0 0.00 0.00 0.00 100 1024.2
20240620112202 68 82 0.0 1.0 0.00 0.00 0.00 100 1024.1
20240620111703 68 82 0.0 0.0 0.00 0.00 0.00 100 1024.1
20240620111203 68 82 0.0 0.0 0.00 0.00 0.00 100 1024.1
20240620110202 68 82 0.0 0.0 0.00 0.00 0.00 100 1023.8
20240620105702 68 82 0.0 0.0 0.00 0.00 0.00 100 1023.8
20240620105203 68 82 0.0 0.0 0.00 0.00 0.00 100 1023.8
20240620104703 68 82 0.0 0.0 0.00 0.00 0.00 100 1023.8
20240620104202 68 82 0.0 0.0 0.00 0.00 0.00 100 1023.8
20240620103702 69 82 0.0 0.0 0.00 0.00 0.00 100 1023.8
20240620103203 69 82 0.0 0.0 0.00 0.00 0.00 100 1023.8
20240620102703 69 82 0.0 0.0 0.00 0.00 0.00 100 1023.8
20240620102203 69 82 0.0 0.0 0.00 0.00 0.00 100 1023.8
20240620100703 69 82 0.0 0.0 0.00 0.00 0.00 100 1023.7
20240620100202 69 82 0.0 0.0 0.00 0.00 0.00 100 1023.3
20240620095703 69 83 0.0 0.0 0.00 0.00 0.00 100 1023.3
20240620095203 69 82 0.0 0.0 0.00 0.00 0.00 100 1023.3
20240620094703 69 82 0.0 0.0 0.00 0.00 0.00 100 1023.3
20240620094202 69 82 0.0 0.0 0.00 0.00 0.00 100 1023.3
20240620093703 69 82 0.0 0.0 0.00 0.00 0.00 100 1023.3
20240620093203 69 82 0.0 0.0 0.00 0.00 0.00 95 1023.3
20240620092703 70 82 0.0 0.0 0.00 0.00 0.00 95 1023.3
20240620092203 70 82 0.0 0.0 0.00 0.00 0.00 95 1023.3
20240620091703 70 82 0.0 1.0 0.00 0.00 0.00 94 1023.2
20240620091203 70 53 0.0 1.0 0.00 0.00 0.00 95 1023.2
20240620090703 70 53 0.0 1.0 0.00 0.00 0.00 95 1023.2
20240620090203 70 50 0.0 1.0 0.00 0.00 0.00 95 1023.2
20240620085702 70 65 0.0 2.0 0.00 0.00 0.00 99 1023.2
20240620085203 70 68 0.0 1.0 0.00 0.00 0.00 100 1023.2
20240620084703 70 120 0.0 0.0 0.00 0.00 0.00 100 1023.3
20240620084203 70 120 0.0 0.0 0.00 0.00 0.00 95 1023.3
20240620083704 70 120 0.0 1.0 0.00 0.00 0.00 95 1023.3
20240620083203 70 120 0.0 1.0 0.00 0.00 0.00 95 1023.3
20240620082703 70 120 0.0 1.0 0.00 0.00 0.00 95 1023.3
20240620082202 70 134 0.0 0.0 0.00 0.00 0.00 95 1023.3
20240620081702 70 134 0.0 0.0 0.00 0.00 0.00 95 1023.3
20240620081203 70 134 0.0 0.0 0.00 0.00 0.00 95 1023.1
20240620080703 70 134 0.0 0.0 0.00 0.00 0.00 95 1023.1
20240620080202 70 134 0.0 0.0 0.00 0.00 0.00 95 1023.1
20240620075703 70 134 0.0 0.0 0.00 0.00 0.00 95 1023.1
20240620075202 70 134 0.0 0.0 0.00 0.00 0.00 95 1023.1
20240620074702 70 134 0.0 0.0 0.00 0.00 0.00 95 1023.1
20240620074203 70 134 0.0 0.0 0.00 0.00 0.00 95 1023.1
20240620073702 70 134 0.0 0.0 0.00 0.00 0.00 94 1023.1
20240620072703 71 134 0.0 0.0 0.00 0.00 0.00 94 1023.2
20240620071203 71 134 0.0 0.0 0.00 0.00 0.00 94 1023.3
20240620070702 71 134 0.0 0.0 0.00 0.00 0.00 94 1023.3
20240620070203 71 134 0.0 0.0 0.00 0.00 0.00 94 1023.3
20240620065703 71 134 0.0 0.0 0.00 0.00 0.00 94 1023.3
20240620064203 71 134 0.0 0.0 0.00 0.00 0.00 93 1023.3
20240620063702 71 134 0.0 0.0 0.00 0.00 0.00 93 1023.3
20240620063203 71 134 0.0 0.0 0.00 0.00 0.00 93 1023.3
20240620062703 72 134 0.0 0.0 0.00 0.00 0.00 92 1023.3
20240620060703 72 134 0.0 0.0 0.00 0.00 0.00 91 1023.3
20240620060203 72 134 0.0 0.0 0.00 0.00 0.00 91 1023.3
20240620055703 72 134 0.0 0.0 0.00 0.00 0.00 91 1023.3
20240620055203 72 134 0.0 0.0 0.00 0.00 0.00 91 1023.3
20240620054703 73 134 0.0 0.0 0.00 0.00 0.00 90 1023.3
20240620054203 73 134 0.0 0.0 0.00 0.00 0.00 90 1023.3
20240620053703 73 134 0.0 0.0 0.00 0.00 0.00 90 1023.3
20240620053202 73 134 0.0 0.0 0.00 0.00 0.00 90 1023.3
20240620052703 73 134 0.0 0.0 0.00 0.00 0.00 89 1022.9
20240620051703 73 134 0.0 0.0 0.00 0.00 0.00 89 1022.9
20240620050702 74 134 0.0 0.0 0.00 0.00 0.00 88 1022.9
20240620050203 74 134 0.0 0.0 0.00 0.00 0.00 87 1022.9
20240620045703 74 134 0.0 0.0 0.00 0.00 0.00 87 1022.9
20240620045204 75 134 0.0 0.0 0.00 0.00 0.00 87 1022.9
20240620044703 75 134 0.0 0.0 0.00 0.00 0.00 87 1022.9
20240620043703 75 67 0.0 1.0 0.00 0.00 0.00 86 1022.9
20240620043203 76 26 0.0 0.0 0.00 0.00 0.00 85 1022.9
20240620042703 76 26 0.0 1.0 0.00 0.00 0.00 85 1022.9
20240620042203 76 67 1.0 3.0 0.00 0.00 0.00 85 1022.9
20240620041703 76 65 0.0 1.0 0.00 0.00 0.00 85 1022.9
20240620041203 76 71 0.0 1.0 0.00 0.00 0.00 85 1022.9
20240620040702 76 63 0.0 1.0 0.00 0.00 0.00 85 1022.9
20240620035703 76 65 1.0 3.0 0.00 0.00 0.00 84 1022.8
20240620035202 76 90 0.0 1.0 0.00 0.00 0.00 84 1022.8
20240620034703 76 50 0.0 1.0 0.00 0.00 0.00 84 1022.7
20240620034202 76 72 0.0 1.0 0.00 0.00 0.00 84 1022.7
20240620032703 77 56 0.0 1.0 0.00 0.00 0.00 84 1022.3
20240620032203 77 57 0.0 1.0 0.00 0.00 0.00 83 1022.3
20240620031703 77 61 1.0 2.0 0.00 0.00 0.00 83 1022.3
20240620031203 76 65 0.0 2.0 0.00 0.00 0.00 83 1022.3
20240620030703 76 70 0.0 1.0 0.00 0.00 0.00 84 1022.3
20240620030203 76 69 0.0 1.0 0.00 0.00 0.00 84 1022.3
20240620025702 76 49 0.0 0.0 0.00 0.00 0.00 84 1022.3
20240620025203 76 49 0.0 0.0 0.00 0.00 0.00 84 1022.3
20240620024703 76 47 0.0 0.0 0.00 0.00 0.00 84 1022.3
20240620024203 76 47 0.0 1.0 0.00 0.00 0.00 84 1022.2
20240620023703 76 51 0.0 1.0 0.00 0.00 0.00 84 1022.1
20240620023203 76 68 0.0 0.0 0.00 0.00 0.00 84 1022.1
20240620022702 76 68 0.0 0.0 0.00 0.00 0.00 84 1021.8
20240620022203 76 68 0.0 0.0 0.00 0.00 0.00 84 1021.8
20240620021703 76 68 0.0 0.0 0.00 0.00 0.00 83 1021.8
20240620021203 76 68 0.0 0.0 0.00 0.00 0.00 82 1021.8
20240620020203 77 68 0.0 0.0 0.00 0.00 0.00 81 1021.8
20240620015703 77 68 0.0 1.0 0.00 0.00 0.00 80 1021.7
20240620015203 78 68 0.0 0.0 0.00 0.00 0.00 79 1021.6
20240620014702 78 68 0.0 0.0 0.00 0.00 0.00 79 1021.6
20240620014203 79 68 0.0 0.0 0.00 0.00 0.00 78 1021.4
20240620013703 79 68 0.0 0.0 0.00 0.00 0.00 78 1021.4
20240620013202 80 68 0.0 0.0 0.00 0.00 0.00 77 1021.4
20240620012703 81 68 0.0 0.0 0.00 0.00 0.00 76 1021.4
20240620012203 82 68 0.0 0.0 0.00 0.00 0.00 75 1021.4
20240620011703 82 68 0.0 0.0 0.00 0.00 0.00 74 1021.1
20240620011203 83 68 0.0 0.0 0.00 0.00 0.00 73 1021.1
20240620010702 83 68 0.0 0.0 0.00 0.00 0.00 73 1021.1
20240620010203 84 68 0.0 0.0 0.00 0.00 0.00 71 1021.1
20240620005702 85 68 0.0 0.0 0.00 0.00 0.00 71 1021.1
20240620004703 85 68 0.0 1.0 0.00 0.00 0.00 70 1021.1
20240620004203 85 259 0.0 0.0 0.00 0.00 0.00 70 1021.0
20240620003703 85 252 0.0 0.0 0.00 0.00 0.00 70 1020.9
20240620003202 85 80 0.0 0.0 0.00 0.00 0.00 69 1020.9
20240620002703 86 89 0.0 1.0 0.00 0.00 0.00 67 1020.9
20240620002203 87 53 0.0 1.0 0.00 0.00 0.00 66 1020.9
20240620001703 86 34 0.0 2.0 0.00 0.00 0.00 67 1020.9
20240620001203 86 60 0.0 1.0 0.00 0.00 0.00 67 1020.9
20240620000703 86 50 0.0 1.0 0.00 0.00 0.00 65 1020.9
20240620000204 87 70 0.0 1.0 0.00 0.00 0.00 64 1020.9
20240619235203 87 43 0.0 3.0 0.00 0.00 0.00 64 1020.8
20240619234703 88 270 1.0 3.0 0.00 0.00 0.00 62 1020.8
20240619234203 89 75 0.0 2.0 0.00 0.00 0.00 62 1020.8
20240619233202 89 140 0.0 1.0 0.00 0.00 0.00 65 1020.8
20240619232703 88 93 0.0 1.0 0.00 0.00 0.00 64 1020.8
20240619232203 88 90 0.0 2.0 0.00 0.00 0.00 64 1020.8
20240619231702 89 208 1.0 2.0 0.00 0.00 0.00 63 1020.6